Showing default

YAOGAN-30 AE, 49028

Orbit data source: Space-Track

YAOGAN-30 AE, 49028 is a payload satellite owned by PLA SSF (CN) in LEO that was launched on Mon, 19 Jul 2021 UTC via a CHANG ZHENG 2C launch vehicle from the Xichang Space Center, China (XSC). Payload-class satellites include a variety of spacecraft equipped with specific instruments for various scientific and technological missions. These include communications satellites like Starlink; space stations such as the ISS; scientific satellites like the Hubble; Earth observation satellites from companies like Planet Labs, Umbra, and HawkEye 360; GPS; miniature CubeSats for education and research; and military/defense satellites.

Loading next visibility...
Identifier
49028, 2021-065C
Orbit
LEO
Country
Flag of CNCN / PRC
Related business
Manufacturer
SECM
Mission
Operational Defense Sigint
Bus & Motor
Unknown
Mass
~500 kg wet, ~500 kg dry
Launch date (UTC)
2021-07-19 (5 years ago)
Launch vehicle
CHANG ZHENG 2C
Launch site
Xichang Space Center, China (XSC)
Object type
Payload
Rocket body
Debris
Shape & HBR
Box + 2 Pan, 0.5 m
Radar Cross Section
0.446 m², Large (>1 m²)

Expand to show TLE details & history
Last TLE update: 21 hours ago

TLE from 21 hours ago
0 YAOGAN-30 AE
1 49028U 21065C   26172.55188870  .00001890  00000-0  14092-3 0  9994
2 49028  34.9934 246.2081 0000507 285.3488  74.7164 15.02692043269288
Epoch: 2026-06-21T13:14Z
TLE epoch observation values (Epoch: 2026-06-21T13:14:43.183Z)
Latitude
-0.00003°
Longitude
137.7776°
Altitude
557.423 km
Speed
7.585 km/s
True Right ascension
16h 24m 49s
True Declination
0° 00' 00"
Sunlit
Object was in full shadow at epoch
Visualization orbit readout
Latitude
Unknown
Longitude
Unknown
Altitude
Unknown
Speed
Unknown
Apparent Right ascension
Unknown
Apparent Declination
Unknown
Sunlit
N/A
Visualization observer readout
Local Sidereal Time
21:24:04
Azimuth
Unknown
Elevation
Unknown
Doppler factor
Unknown
Orbital elements
Apogee altitude
562.173 km
Perigee altitude
561.47 km
Semi-major axis
6,939.959 km
Eccentricity
0.00005
Inclination
34.9934°
RAAN
246.2081°
Arg. of periapsis
285.3488°
True anomaly
74.722°
Mean anomaly
74.7164°
Eccentric anomaly
74.7192°
Mean motion
3.75412 °/min
Orbital period
95.89 mins
BSTAR
0.00014092
Loading maneuver chart data...
Computing Atmospheric mass density...
Loading historical data...
Loading historical data...
Loading historical data...
Loading historical data...
Loading historical data...
Loading historical data...
Loading historical data...
Other satellites on launch #65 in the year 2021 (2021-07-19 UTC)

Documentation

Showing up to 5 results
|